Regional Weather Roundup
Issued by NWS Wakefield, VA

Home | Current Version | Previous Version | Graphics & Text | Print | Product List | Glossary On
Versions: 1 2 3 4 5 6 7 8 9 10 11 12 13 14 15 16 17 18 19 20 21 22 23 24 25 26 27 28 29 30 31 32 33 34 35 36 37 38 39 40 41 42 43 44 45 46 47 48 49 50
572
ASUS41 KAKQ 290815
RWRAKQ

REGIONAL WEATHER ROUNDUP
NATIONAL WEATHER SERVICE WAKEFIELD VA
400 AM EDT FRI JUL 29 2016

Note: "fair" indicates few or no clouds below 12,000 feet with no
significant weather and/or obstructions to visibility. * = Denotes
station may not report precipitation (e.g., rain,snow,etc.),
thunder or fog.

VAZ042-051-052>054-056-290900-
NORTHERN VIRGINIA

CITY           SKY/WX    TMP DP  RH WIND       PRES   REMARKS
WASH NATIONAL  RAIN      77  74  90 NW9       29.80S FOG
DULLES         HVY RAIN  72  71  97 NW8       29.82S FOG
FORT BELVOIR   DRIZZLE   76  74  93 NW6       29.79S
QUANTICO       CLOUDY    76  74  93 NW9       29.80F
FREDERICKSBRG* CLOUDY    75  75 100 NW8       29.79F FOG
STAFFORD*      LGT RAIN  74  73  95 NW7       29.84F
WARRENTON      CLOUDY    74  68  83 NW5       29.82S
CULPEPER*      LGT RAIN  73  72  98 NW5       29.84F
MANASSAS*      CLOUDY    73  73 100 NW8       29.82S
LEESBURG*      LGT RAIN  73  73 100 N8        29.84F
WINCHESTER     LGT RAIN  70  68  94 NW8       29.87S
FRONT ROYAL*   CLOUDY    70  70 100 CALM      29.87S
LURAY*         RAIN     N/A N/A N/A CALM      29.88S
$$

VAZ048-049-060>072-079>083-290900-
CENTRAL AND SOUTH CENTRAL VIRGINIA

CITY           SKY/WX    TMP DP  RH WIND       PRES   REMARKS
RICHMOND       FAIR      75  73  93 SW5       29.80F
CHESTERFIELD*  CLOUDY    75  63  64 CALM      29.82F
PETERSBURG*    MOCLDY   N/A N/A N/A SW3       29.82S
HANOVER        CLOUDY    75  73  93 W5        29.82S
TAPPAHANNOCK*  FAIR      75  75 100 SE5       29.79F
QUINTON*       FAIR      74  74 100 W7        29.80S
CHARLOTTSVILLE LGT RAIN  74  72  93 NW3       29.85F
GORDONSVILLE*  CLOUDY    73  72  99 NW5       29.83S
ORANGE*          N/A     73  73 100 CALM      29.85S
LOUISA*        CLOUDY    75  75 100 NW5       29.82F FOG
BUMPASS*       CLOUDY    73  73 100 CALM      29.82S
FARMVILLE*     CLOUDY   N/A N/A N/A CALM      29.83F
CREWE*         NOT AVBL
FORT PICKETT*  FAIR      73  72  97 W12       29.84S
CHASE CITY*    PTSUNNY   74  73  94 CALM      29.86R
CLARKSVILLE*   FAIR      73  73 100 CALM      29.85S
SOUTH HILL*    FAIR      75  73  93 CALM      29.89F
LAWRENCEVILLE* FAIR      76  74  92 CALM      29.83F
EMPORIA*       FAIR      77  72  83 SW5       29.84S
$$

VAZ088>098-290900-
SOUTHEAST VIRGINIA

CITY           SKY/WX    TMP DP  RH WIND       PRES   REMARKS
NORFOLK        FAIR      84  71  65 SW15      29.78F
VIRGINIA BEACH FAIR      87  71  58 SW10      29.78F
NORFOLK NAVAL  FAIR      83  71  67 SW10      29.80F
WEST POINT*    FAIR      73  72  96 CALM      29.79S
SALUDA*        FAIR      74  74 100 S5        29.77F
NEWPORT NEWS   FAIR      82  73  74 SW10      29.78F
LANGLEY AFB    FAIR      82  73  73 SW13      29.78F
FORT EUSTIS    FAIR      83  74  74 SW7       29.76F
WILLIAMSBURG*  FAIR      82  75  78 SW9       29.80S
HR EXEC AP*    FAIR      81  72  74 SW9       29.82F
FRANKLIN*      FAIR      80  71  74 SW7       29.82F
US460-WAKEFLD  FAIR      80  71  74 S5        29.80F
$$

VAZ020-022-025-037-045-290900-
WEST CENTRAL AND SOUTHWEST VIRGINIA

CITY           SKY/WX    TMP DP  RH WIND       PRES   REMARKS
STAUNTON*      CLOUDY    70  69  97 N5        29.91S
WAYNESBORO*    CLOUDY    69  68  96 NW6       29.90F
HOT SPRINGS VA NOT AVBL
LYNCHBURG      FOG       72  72 100 SW3       29.89S VSB 3/4
DANVILLE       MOCLDY    77  71  82 NW3       29.87F
SOUTH BOSTON*  CLOUDY   N/A N/A N/A CALM      29.86R
MARTINSVILLE   CLOUDY    73  69  88 CALM      29.92R
ROANOKE        FAIR      72  70  93 W7        29.92S
BLACKSBURG     CLOUDY    69  68  96 W5        29.99F
DUBLIN*        CLOUDY    71  67  88 W5        29.99S
MARION*        RAIN      69  67  92 NW3       30.03S
HILLSVILLE*    CLOUDY    67  67  99 NW7       29.99S
RICHLANDS*     FOG       66  66 100 NW3       30.03S VSB 1
WISE*          CLOUDY    66  64  94 CALM      30.05R
ABINGDON*      CLOUDY    70  70 100 W7        30.01S
$$

MDZ021>025-VAZ099-100-290900-
SOUTHERN MARYLAND AND THE DELMARVA PENINSULA

CITY           SKY/WX    TMP DP  RH WIND       PRES   REMARKS
PATUXENT RIVER CLOUDY    75  73  93 SW6       29.76R
BAY BRIDGE APT LGT RAIN  73  73 100 NE3       29.76F FOG
LEONARDTOWN    CLOUDY    73  72  94 W5        29.78R
DOVER          CLOUDY    74  74 100 N3        29.75F
GEORGETOWN     CLOUDY    73  72  96 N5        29.77F FOG
EASTON         LGT RAIN  75  75 100 E6        29.78F
CAMBRIDGE      CLOUDY    72  72 100 E10       29.73F
SALISBURY      NOT AVBL
OCEAN CITY       N/A    N/A N/A N/A MISG      29.77S
WALLOPS ISLAND FAIR      76  75  97 S6        29.76F
ACCOMACK*      FAIR      73  70  88 S5        29.77F
$$

NCZ012>017-030>032-290900-
NORTH CENTRAL AND EASTERN NORTH CAROLINA

CITY           SKY/WX    TMP DP  RH WIND       PRES   REMARKS
ROANOKE RAPIDS FAIR      77  72  83 NW8       29.84S
RALEIGH        CLEAR     78  70  76 W3        29.87S
ELIZABETH CITY CLEAR     82  73  74 SW10      29.82F
AHOSKIE*       CLEAR     77  72  84 SW3       29.83F
EDENTON*       CLEAR     85  73  65 SW9G18    29.84F
CURRITUCK*     CLEAR     82  74  77 SW6       29.83F
KILL DEVIL HLS CLEAR     83  75  75 SW9       29.83S
MANTEO           N/A     82  78  85 W14       29.85S
CAPE HATTERAS  CLEAR     81  78  91 SW10      29.87F
TARBORO*       FAIR      80  72  77 SW5       29.85F
GOLDSBORO      PTCLDY    81  75  81 SW9       29.86S
WASHINGTON     PTCLDY    80  74  83 SW6       29.86F
GREENVILLE     PTCLDY    81  75  83 SW7       29.88F
NEW BERN       CLEAR     80  74  81 SW7       29.90S
WILMINGTON     CLEAR     81  77  88 SW8       29.91S
$$

VAZ048-290900-
ELSEWHERE

CITY           SKY/WX    TMP DP  RH WIND       PRES   REMARKS
HARRISBURG PA  LGT RAIN  73  72  96 CALM      29.82F
BALTIMORE      LGT RAIN  74  72  93 N6        29.78F FOG
ANNAPOLIS      CLOUDY    76  74  93 NW3       29.77F
ANDREWS AFB    CLOUDY    75  73  94 N2        29.78R
PHILADELPHIA   CLOUDY    75  73  93 N8        29.82S FOG
GREENSBORO     CLEAR     77  66  68 CALM      29.89S
ROCKY MOUNT    CLEAR     78  73  84 SW5       29.85F
$$

VAZ100-290900-
MARINE

STATION/POSITION TIME  TEMP    WIND        PRES    WAVE   SWELL
                       AIR SEA DIR/SP/G            HT/PER HT/PER
                 (UTC) (F)     (DEG/KT/KT) (MB)    (FT/S) (FT/S)
BRANDYWINE LGT   0700   76      30/  5/  6   N/A
CAPE MAY NJ      0700   74 71   CALM  /  2 1008.3F
LEWES DE         0700   75 72  310/  3/  5 1008.7F
OCEAN-CITY-INLET 0700   74 71   CALM  /  1 1008.2F
WACHAPREAGUE VA  0700   73 86   30/  2/  3 1008.8F
THOMAS POINT MD  0800   77 84   30/  6/  7 1009.4F
GOOSES REEF MD   0800   79 85  290/  6/  8 1008.7F   1
COVE POINT MD    0700   76      CALM  /  4 1008.0F
SOLOMONS ISLAND  0700   77 86  270/  4/  6   N/A
BISHOPS HEAD MD  0700   81      CALM  /  5 1008.5F
PINEY POINT MD   0718          270/  7/  9   N/A
POTOMAC MD       0800   79 85  240/ 10/ 12 1006.6F   0
CAMBRIDGE MD     0700   76 88   CALM  /  1 1007.7F
LEWISETTA VA     0700   77 86  320/  7/ 11 1008.1F
RAPPAHANNOCK LGT 0700          150/  4/  5 1009.1F
STINGRAY PT      0800   82 86  110/  8/ 10 1008.4F   1/ 3
YORK RVR RNG VA  0700   81     130/ 10/ 11 1008.2F
YORKTOWN VA      0700   81 85  170/  4/  5 1008.4F
JAMESTOWN VA     0800   83 89  230/ 10/ 12   N/A     0
DOMINION TERM VA 0700   85     250/  4/  6 1009.3F
KIPTOPEKE VA     0700      79   90/  7/  9   N/A
CHES BAY BRIDGE  0700   85 83  220/  8/  8 1008.9F
CAPE HENRY VA    0700   83     230/  5/  7   N/A
WILLOUBY STN VA  0700   85     240/  7/  8   N/A
CAPE HENRY BUOY  0742      78                N/A     2/ 4
1ST LANDING BUOY 0800   83 80  250/ 10/ 14 1008.2F   2/ 3
CAPE CHARLES BUO 0756      74                N/A     2/ 4
OFFSHORE WE BUOY 0751      82                N/A     3/ 5
64NM E OF VA BCH 0750   83 81  220/ 14/ 16 1009.1F   3/ 5
DUCK PIER NC     0700   85 68  220/ 13/ 16 1009.6F
44100 DUCK FRF   0705      80                N/A     2/ 8
44056 DUCK FRF   0741      74                N/A     1/ 8
OREGON INLET NC  0700   85 82  210/ 14/ 17 1010.7F
HATTERAS NC      0700   82 84  210/  7/ 11 1011.9F
DIAMOND SHLS NC  0750   85 85  230/ 19/ 21 1011.4F   4/ 5   2/10
CAPE LOOKOUT NC  0800   83     240/ 11/ 13 1012.0F
$$




USA.gov is the U.S. government's official web portal to all federal, state and local government web resources and services.